Hayward, CA

12:57 AM PST on December 07, 2016 (GMT -0800)
Hayward Executive

Weather History for KHWD - March, 2014

Change the Weather History Date:

Sunday, March 16, 2014

  Actual Average Record
Temperature  
Mean Temperature 60 °F 56 °F  
Max Temperature 71 °F 64 °F 87 °F (2004)
Min Temperature 48 °F 47 °F 40 °F (2008)
Degree Days  
Heating Degree Days 5    
Month to date heating degree days 98  
Since 1 July heating degree days 1616  
Cooling Degree Days 0    
Month to date cooling degree days 0  
Year to date cooling degree days 0  
Growing Degree Days 10 (Base 50)    
Moisture  
Dew Point 48 °F    
Average Humidity 67    
Maximum Humidity 89    
Minimum Humidity 44    
Precipitation  
Precipitation 0.00 in - 0.69 in (2012)
Month to date precipitation 0.26  
Year to date precipitation 2.63  
Since 1 July precipitation 3.83  
Sea Level Pressure  
Sea Level Pressure 30.29 in    
Wind  
Wind Speed 6 mph (NW)    
Max Wind Speed 18 mph    
Max Gust Speed 26 mph    
Visibility 10 miles    
Events      
T = Trace of Precipitation, MM = Missing Value Source: NWS Daily Summary

Daily Weather History Graph

Daily Weather History Graph

Search for Another Location

Airport or City:

Trip Planner

Search our weather history database for the weather conditions in past years. The results will help you decide how hot, cold, wet, or windy it might be!

Date:

Astronomy

Mar. 16, 2014 Rise Set
Actual Time 7:17 AM PDT 7:16 PM PDT
Civil Twilight 6:51 AM PDT 7:42 PM PDT
Nautical Twilight 6:21 AM PDT 8:13 PM PDT
Astronomical Twilight 5:50 AM PDT 8:44 PM PDT
Moon 7:38 PM PDT (3/16) 7:04 AM PDT (3/16)
Length of Visible Light 12h 51m
Length of Day
11h 58m
Full, 100% of the Moon is Illuminated
Mar 16
Full
Mar 23
Last Quarter
Mar 30
New
Apr 7
First Quarter
Apr 15
Full

Hourly Weather History & Observations

Time (PDT) Temp. Dew Point Humidity Pressure Visibility Wind Dir Wind Speed Gust Speed Precip Events Conditions
12:54 AM 55.0 °F 51.1 °F 86% 30.33 in 10.0 mi Calm Calm - N/A   Clear
1:54 AM 53.1 °F 48.0 °F 83% 30.32 in 10.0 mi East 3.5 mph - N/A   Clear
2:54 AM 52.0 °F 45.0 °F 77% 30.33 in 10.0 mi ENE 4.6 mph - N/A   Clear
3:54 AM 51.1 °F 43.0 °F 74% 30.31 in 10.0 mi ENE 3.5 mph - N/A   Clear
4:54 AM 51.1 °F 43.0 °F 74% 30.31 in 10.0 mi Calm Calm - N/A   Clear
5:54 AM 50.0 °F 42.1 °F 74% 30.32 in 10.0 mi Calm Calm - N/A   Clear
6:54 AM 48.9 °F 43.0 °F 80% 30.32 in 10.0 mi ENE 3.5 mph - N/A   Clear
7:54 AM 50.0 °F 43.0 °F 77% 30.32 in 10.0 mi Calm Calm - N/A   Clear
8:54 AM 55.9 °F 46.0 °F 69% 30.34 in 10.0 mi Calm Calm - N/A   Clear
9:54 AM 59.0 °F 52.0 °F 78% 30.34 in 10.0 mi Calm Calm - N/A   Clear
10:54 AM 63.0 °F 52.0 °F 67% 30.34 in 10.0 mi Calm Calm - N/A   Clear
11:54 AM 63.0 °F 53.1 °F 70% 30.32 in 10.0 mi Variable 3.5 mph - N/A   Clear
12:54 PM 66.0 °F 52.0 °F 60% 30.32 in 10.0 mi WNW 5.8 mph - N/A   Clear
1:54 PM 70.0 °F 48.9 °F 47% 30.28 in 10.0 mi West 6.9 mph - N/A   Clear
2:54 PM 71.1 °F 48.9 °F 45% 30.26 in 10.0 mi West 12.7 mph - N/A   Clear
3:54 PM 70.0 °F 50.0 °F 49% 30.24 in 10.0 mi West 12.7 mph - N/A   Clear
4:54 PM 66.9 °F 52.0 °F 59% 30.23 in 10.0 mi WNW 15.0 mph - N/A   Clear
5:54 PM 59.0 °F 51.1 °F 75% 30.23 in 10.0 mi WNW 12.7 mph - N/A   Clear
6:54 PM 55.9 °F 50.0 °F 80% 30.24 in 10.0 mi WNW 8.1 mph - N/A   Clear
7:54 PM 54.0 °F 48.9 °F 83% 30.25 in 10.0 mi WNW 10.4 mph - N/A   Clear
8:54 PM 53.1 °F 48.0 °F 83% 30.25 in 10.0 mi WNW 8.1 mph - N/A   Clear
9:54 PM 53.1 °F 48.9 °F 86% 30.25 in 10.0 mi Calm Calm - N/A   Clear
10:54 PM 52.0 °F 48.9 °F 89% 30.26 in 10.0 mi NW 4.6 mph - N/A   Clear
11:54 PM 53.1 °F 46.9 °F 80% 30.26 in 10.0 mi West 16.1 mph 23.0 mph N/A   Clear